Weather History for LGAD - November, 2012

Change the Weather History Date:

Wednesday, November 7, 2012

  Actual Average Record
Temperature  
Mean Temperature 63 °F -  
Max Temperature 68 °F 62 °F 77 °F (2000)
Min Temperature 58 °F 47 °F 41 °F (2006)
Degree Days  
Heating Degree Days 2    
Growing Degree Days 13 (Base 50)    
Moisture  
Dew Point 59 °F    
Average Humidity 82    
Maximum Humidity 94    
Minimum Humidity 68    
Precipitation  
Precipitation 0.16 in - - ()
Sea Level Pressure  
Sea Level Pressure 30.05 in    
Wind  
Wind Speed 2 mph ()    
Max Wind Speed 21 mph    
Max Gust Speed -    
Visibility 6.1 miles    
Events Rain    
Averages and records for this station are not official NWS values.
T = Trace of Precipitation, MM = Missing Value Source: Averaged Metar Reports

Daily Weather History Graph

Daily Weather History Graph

Search for Another Location

Airport or City:

Trip Planner

Search our weather history database for the weather conditions in past years. The results will help you decide how hot, cold, wet, or windy it might be!

Date:

Astronomy

Nov. 07, 2012 Rise Set
Actual Time 7:06 AM EET 5:29 PM EET
Civil Twilight 6:39 AM EET 5:57 PM EET
Nautical Twilight 6:07 AM EET 6:28 PM EET
Astronomical Twilight 5:37 AM EET 6:59 PM EET
Moon No Moon Rise 1:22 PM EET (11/7)
Length of Visible Light 11h 17m
Length of Day
10h 22m
Last Quarter, 46% of the Moon is Illuminated
Nov 7
Last Quarter
Nov 14
New
Nov 20
First Quarter
Nov 28
Full
Dec 6
Last Quarter

Hourly Weather History & Observations

Time (EET) Temp. Dew Point Humidity Pressure Visibility Wind Dir Wind Speed Gust Speed Precip Events Conditions
12:20 AM 60.8 °F 57.2 °F 88% 30.06 in 6.2 mi Calm Calm - N/A   Scattered Clouds
12:50 AM 60.8 °F 57.2 °F 88% 30.06 in 6.2 mi Calm Calm - N/A   Scattered Clouds
2:00 AM 60 °F 57 °F 87% 30.06 in 6 mi Calm Calm - -   Scattered Clouds
3:50 AM 60.8 °F 57.2 °F 88% 30.04 in 6.2 mi Calm Calm - N/A   Scattered Clouds
4:20 AM 60.8 °F 57.2 °F 88% 30.04 in 6.2 mi Calm Calm - N/A   Scattered Clouds
4:50 AM 60.8 °F 57.2 °F 88% 30.06 in 6.2 mi Calm Calm - N/A   Scattered Clouds
6:20 AM 60.8 °F 57.2 °F 88% 30.06 in 6.2 mi Calm Calm - N/A   Scattered Clouds
6:50 AM 59.0 °F 55.4 °F 88% 30.06 in 6.2 mi SSE 3.5 mph - N/A   Scattered Clouds
7:20 AM 59.0 °F 55.4 °F 88% 30.06 in 6.2 mi Calm Calm - N/A   Scattered Clouds
7:50 AM 59.0 °F 57.2 °F 94% 30.06 in 6.2 mi Calm Calm - N/A   Scattered Clouds
8:00 AM 60 °F 57 °F 85% 30.07 in 6 mi Calm Calm - -   Scattered Clouds
8:20 AM 62.6 °F 57.2 °F 82% 30.06 in 6.2 mi Calm Calm - N/A   Scattered Clouds
8:50 AM 66.2 °F 59.0 °F 78% 30.06 in 6.2 mi Calm Calm - N/A   Mostly Cloudy
9:20 AM 66.2 °F 59.0 °F 78% 30.09 in 6.2 mi Calm Calm - N/A   Mostly Cloudy
9:50 AM 68.0 °F 59.0 °F 73% 30.06 in 6.2 mi Calm Calm - N/A   Mostly Cloudy
10:20 AM 68.0 °F 60.8 °F 78% 30.09 in 6.2 mi Calm Calm - N/A   Overcast
10:50 AM 68.0 °F 60.8 °F 78% 30.09 in 6.2 mi Calm Calm - N/A   Overcast
11:20 AM 68.0 °F 62.6 °F 83% 30.09 in 6.2 mi Calm Calm - N/A   Overcast
11:50 AM 68.0 °F 60.8 °F 78% 30.09 in 6.2 mi South 4.6 mph - N/A   Overcast
12:20 PM 69.8 °F 62.6 °F 78% 30.09 in 6.2 mi South 8.1 mph - N/A   Overcast
12:50 PM 68.0 °F 62.6 °F 83% 30.06 in 5.0 mi South 4.6 mph - N/A Rain Light Rain
1:20 PM 68.0 °F 62.6 °F 83% 30.06 in 5.0 mi SE 5.8 mph - N/A Rain Light Rain
1:50 PM 68.0 °F 62.6 °F 83% 30.04 in 6.2 mi SSE 5.8 mph - N/A   Mostly Cloudy
2:00 PM 68 °F 62 °F 76% 30.04 in 6 mi SSE 5.8 mph - - Rain Light Rain
2:20 PM 69.8 °F 62.6 °F 78% 30.04 in 6.2 mi South 4.6 mph - N/A   Mostly Cloudy
2:50 PM 69.8 °F 60.8 °F 73% 30.04 in 6.2 mi Calm Calm - N/A   Mostly Cloudy
3:20 PM 68.0 °F 60.8 °F 78% 30.04 in 6.2 mi Calm Calm - N/A   Overcast
3:50 PM 68.0 °F 60.8 °F 78% 30.01 in 6.2 mi Calm Calm - N/A   Overcast
4:20 PM 68.0 °F 60.8 °F 78% 30.01 in 6.2 mi Calm Calm - N/A   Overcast
4:50 PM 64.4 °F 60.8 °F 88% 30.04 in 5.0 mi NW 10.4 mph - N/A Rain Light Rain
5:20 PM 64.4 °F 60.8 °F 88% 30.04 in 6.2 mi NW 5.8 mph - N/A   Overcast
5:50 PM 64.4 °F 60.8 °F 88% 30.04 in 6.2 mi Calm Calm - N/A   Overcast
6:20 PM 64.4 °F 60.8 °F 88% 30.04 in 6.2 mi Calm Calm - N/A   Overcast
6:50 PM 64.4 °F 57.2 °F 77% 30.04 in 6.2 mi NW 9.2 mph - N/A   Overcast
7:20 PM 62.6 °F 57.2 °F 82% 30.04 in 6.2 mi NW 9.2 mph - N/A Rain Light Rain
7:50 PM 62.6 °F 57.2 °F 82% 30.04 in 6.2 mi NNW 8.1 mph - N/A Rain Light Rain
8:00 PM 63 °F 58 °F 78% 30.04 in 6 mi NNW 8.1 mph - - Rain Light Rain
8:20 PM 60.8 °F 59.0 °F 94% 30.04 in 6.2 mi NW 9.2 mph - N/A Rain Light Rain
8:50 PM 60.8 °F 57.2 °F 88% 30.06 in 6.2 mi NNW 20.7 mph - N/A Rain Light Rain
9:20 PM 60.8 °F 55.4 °F 82% 30.06 in 6.2 mi NNW 20.7 mph - N/A Rain Light Rain
9:50 PM 60.8 °F 53.6 °F 77% 30.06 in 6.2 mi NNW 8.1 mph - N/A   Overcast
10:20 PM 62.6 °F 51.8 °F 68% 30.06 in 6.2 mi NNW 8.1 mph - N/A   Overcast
10:50 PM 60.8 °F 51.8 °F 72% 30.06 in 6.2 mi NNW 8.1 mph - N/A   Overcast